Location: NovaLab Observatory
(42.8167°N, 71.2500°W)
Time: 12:03:03
(UTC-05:00)

Daily predictions for brighter satellites

Satellite Brightness Start Highest point End
(mag) Time Altitude Azimuth Time Altitude Azimuth Time Altitude Azimuth
Cosmos 2221 4.2 17:04:57 10° NNW 17:08:54 38° W 17:12:51 10° SSW
Cosmos 2333 4.2 17:03:50 10° SSW 17:09:24 71° ESE 17:15:00 10° NNE
AQUARIUS 4.1 17:05:18 10° SSE 17:09:48 79° ENE 17:14:19 10° N
Cosmos 332 Rocket 4.0 17:07:43 10° S 17:12:24 53° ESE 17:17:08 10° NNE
Cosmos 389 Rocket 2.9 17:09:40 10° NNW 17:13:16 69° W 17:16:46 10° S
Meteor 2-2 Rocket 4.3 17:08:45 10° N 17:14:20 60° ENE 17:19:53 10° SSE
Cosmos 2360 Rocket 3.3 17:10:02 10° SW 17:15:21 43° WNW 17:20:43 10° NNE
Cosmos 1980 4.4 17:12:34 10° SSE 17:17:39 35° ESE 17:22:46 10° NE
Cosmos 1328 4.5 17:16:01 10° SSE 17:19:35 34° E 17:23:10 10° NNE
USA 215 3.5 17:18:16 10° ESE 17:24:35 52° NNE 17:30:54 10° NW
Cosmos 540 Rocket 4.1 17:20:22 10° SSE 17:25:01 35° ESE 17:29:41 10° NE
MONITOR-E 4.4 17:22:25 10° SSE 17:25:28 50° ENE 17:28:34 10° N
Cosmos 2084 3.5 17:23:17 10° SSW 17:27:03 49° ESE 17:30:42 10° NE
CORIOLIS 4.3 17:24:51 10° S 17:30:11 79° WSW 17:35:35 10° NNW
Cosmos 44 4.0 17:25:36 10° S 17:30:29 40° ESE 17:35:10 10° NE
BREEZE-M DEB (TANK) 3.7 17:28:39 10° SSW 17:30:37 19° SE 17:32:06 12° E
ALOS 3.8 17:29:29 10° E 17:31:59 14° ENE 17:34:29 10° NNE
Cosmos 2333 Rocket 2.4 17:26:36 10° S 17:32:05 55° ESE 17:37:36 10° NNE
SJ-6B 4.1 17:30:44 10° ESE 17:33:50 21° ENE 17:36:58 10° NNE
OTV 4 2.3 17:32:37 10° WSW 17:35:11 26° S 17:37:43 10° SE
Resurs 01 Rocket 3.2 17:40:01 14° E 17:41:11 16° ENE 17:43:48 10° NNE
Cosmos 2219 Rocket 2.2 17:36:01 10° SSW 17:41:40 84° ESE 17:47:19 10° NNE
Cosmos 371 Rocket 3.2 17:37:30 10° SSW 17:42:17 77° ESE 17:47:07 10° NNE
COSMO-SKYMED 1 2.6 17:38:35 10° NNE 17:42:54 59° E 17:47:10 10° S
YAOGAN 1 3.6 17:40:12 10° S 17:44:24 50° W 17:48:38 10° NNW
Cosmos 1703 4.5 17:41:55 10° SE 17:44:53 21° E 17:46:22 17° ENE
Thor Agena Rocket 4.0 17:41:25 10° N 17:46:39 67° WNW 17:51:47 10° SSW
Cosmos 1125 Rocket 3.4 17:42:26 10° NNW 17:47:40 76° ENE 17:52:50 10° SSE
SPOT 3 Rocket 4.5 17:42:57 10° S 17:47:57 52° W 17:53:01 10° NNW
Cosmos 2278 Rocket 2.2 17:42:29 10° NNW 17:48:10 67° ENE 17:53:48 10° SSE
Cosmos 2058 3.3 17:44:20 10° SSE 17:48:12 41° E 17:52:04 10° NNE
Meteor 1-27 4.4 17:45:38 10° N 17:51:21 56° ENE 17:57:04 10° SSE
Cosmos 2279 Rocket 4.0 17:45:18 10° N 17:51:25 56° ENE 17:57:30 10° SSE
Cosmos 2228 Rocket 4.3 17:48:22 10° NNW 17:52:36 46° W 17:56:50 10° SSW
FREGAT/IRIS 4.3 17:55:41 10° SE 17:59:50 19° NNE 18:01:04 10° N
Spot 2 Rocket 4.4 17:54:38 10° ESE 17:58:43 25° ENE 18:02:49 10° N
Cosmos 1626 3.4 17:56:45 10° SE 17:59:17 22° E 17:59:17 22° E
NOAA 12 4.1 17:54:39 10° SSE 17:59:45 55° ENE 18:04:53 10° N
Cosmos 1844 4.4 17:54:06 10° NNW 17:59:45 60° WSW 18:05:26 10° S
Cosmos 841 Rocket 4.5 17:56:45 10° SW 18:01:50 48° WNW 18:06:57 10° N
Cosmos 44 Rocket 3.6 17:57:16 10° SW 18:02:23 73° NW 18:06:56 13° NNE
Cosmos 1340 Rocket 3.0 17:58:39 10° SSE 18:02:25 45° E 18:05:16 16° NNE
CENTAUR R/B 3.5 17:58:56 10° WSW 18:04:51 45° NW 18:11:34 10° NNE
SL-14 R/B 3.3 18:04:51 10° S 18:08:45 81° W 18:12:45 10° N
Lacrosse 5 3.8 18:07:32 10° NW 18:11:00 18° NNW 18:13:44 12° NNE
Cosmos 1356 Rocket 4.1 18:08:03 10° SSE 18:11:17 30° E 18:11:17 30° E
Cosmos 2180 Rocket 4.4 18:05:28 10° N 18:11:36 66° E 18:17:45 10° SSE
Nadezhda 4 Rocket 4.4 18:07:01 10° SSE 18:12:46 40° E 18:18:36 10° NNE
Cosmos 1484 Rocket 4.2 18:09:24 10° S 18:13:06 42° W 18:16:55 10° NNW
COSMOS 2428 4.2 18:08:11 10° WSW 18:13:19 34° NW 18:18:29 10° N
Cosmos 2237 Rocket 2.2 18:08:08 10° SSW 18:13:46 89° WNW 18:19:14 11° NNE
Cosmos 1726 3.1 18:12:05 10° NNW 18:15:45 50° W 18:19:24 10° S
Cosmos 2369 Rocket 4.2 18:15:58 10° NNE 18:16:36 11° NNE 18:16:36 11° NNE
SL-16 R/B 2.5 18:13:52 10° S 18:19:11 44° ESE 18:21:40 28° NE
Cosmos 2151 3.4 18:15:05 10° SSW 18:19:14 61° W 18:23:25 10° N
Cosmos 1300 3.7 18:15:48 10° NNW 18:19:30 47° W 18:23:11 10° SSW
Cosmos 1900 4.5 18:19:07 10° NNW 18:23:56 49° NE 18:25:43 34° ESE
Timation 1 Rocket 4.2 18:19:25 10° NNW 18:25:28 72° ENE 18:31:27 10° SSE
Cosmos 304 Rocket 3.7 18:21:14 10° S 18:25:58 62° ESE 18:28:11 30° NE
Cosmos 2297 3.6 18:22:39 10° NNW 18:28:21 67° ENE 18:34:03 10° SSE
Cosmos 1092 Rocket 4.3 18:25:12 10° SSE 18:31:02 41° E 18:35:05 19° NNE
Aureole 2 Rocket 2.7 18:28:04 10° SSW 18:31:44 77° WNW 18:33:25 33° NNE
Cosmos 1805 Rocket 3.5 18:30:33 10° S 18:35:01 86° E 18:38:22 18° N
BREEZE M DEB (TANK) 2.8 18:35:25 10° WNW 18:37:00 34° W 18:37:00 34° W
Lacrosse 5 rocket 1.3 18:35:35 10° NW 18:39:23 72° SW 18:40:18 49° SSE
Abrixas 3.7 18:37:46 10° WSW 18:39:46 39° SW 18:39:46 39° SW
Sich 1 3.0 18:52:26 10° S 18:56:53 85° W 18:57:08 79° NNW
CZ-4C R/B 4.4 18:53:50 10° NNW 18:57:30 15° NNE 18:57:30 15° NNE
Cosmos 1633 Rocket 3.3 18:56:58 10° S 19:00:37 60° SSW 19:00:37 60° SSW
FengYun 1-2 T 4.2 18:56:31 10° SSE 19:02:06 81° WSW 19:07:40 10° NNW
Lacrosse 4 Rocket 3.8 18:59:52 10° NNW 19:00:22 13° NNW 19:00:22 13° NNW
FENGYUN 3A 3.6 19:00:29 10° S 19:05:50 80° WSW 19:11:14 10° NNW
USA 215 3.9 19:01:55 14° SSE 19:07:33 54° SW 19:13:58 10° NW
ALOS 2.5 19:04:14 10° S 19:08:51 67° WSW 19:13:32 10° NNW
Cosmos 2333 Rocket 4.1 19:12:06 10° WSW 19:16:42 25° NW 19:20:56 12° N
Resurs 01 Rocket 2.3 19:17:34 54° WNW 19:17:34 54° WNW 19:21:35 10° NNW
Cosmos 1461 4.2 19:15:34 10° SW 19:18:18 37° WSW 19:18:18 37° WSW
ATLAS 5 CENTAUR R/B 4.3 19:16:41 10° N 19:18:04 14° N 19:18:04 14° N
USA 229 DEB 4.0 19:44:11 10° SW 19:49:29 58° SW 19:49:29 58° SW
USA 229 4.0 19:44:16 10° SW 19:49:32 57° SW 19:49:32 57° SW
Lacrosse 5 4.5 19:52:15 10° NNW 19:52:57 12° NNW 19:52:57 12° NNW
SL-16 R/B 3.8 19:58:34 10° WSW 20:03:27 30° NW 20:03:37 30° NW
